Weather History for Roswell, NM

Change the Weather History Date:

Tuesday, September 17, 2013

  Actual Average Record
Temperature  
Mean Temperature 74 °F 72 °F  
Max Temperature 82 °F 85 °F 98 °F (2005)
Min Temperature 66 °F 58 °F 41 °F (1968)
Degree Days  
Heating Degree Days 0 0  
Month to date heating degree days 0 0  
Since 1 July heating degree days 0 0  
Cooling Degree Days 9 7  
Month to date cooling degree days 197 160  
Year to date cooling degree days 2061 1684  
Growing Degree Days 24 (Base 50)    
Moisture  
Dew Point 64 °F    
Average Humidity 72    
Maximum Humidity 93    
Minimum Humidity 51    
Precipitation  
Precipitation 0.01 in 0.06 in 1.60 in (1974)
Month to date precipitation 3.64 0.93  
Year to date precipitation 8.24 9.86  
Sea Level Pressure  
Sea Level Pressure 30.02 in    
Wind  
Wind Speed 9 mph (SSE)    
Max Wind Speed 18 mph    
Max Gust Speed 28 mph    
Visibility 10 miles    
Events Rain , Thunderstorm    
T = Trace of Precipitation, MM = Missing Value Source: NWS Daily Summary

Daily Weather History Graph

Daily Weather History Graph

Search for Another Location

Airport:

Trip Planner

Search our weather history database for the weather conditions in past years. The results will help you decide how hot, cold, wet, or windy it might be!

Date:

Astronomy

Sep. 17, 2013 Rise Set
Actual Time 6:43 AM MDT 7:01 PM MDT
Civil Twilight 6:18 AM MDT 7:26 PM MDT
Nautical Twilight 5:49 AM MDT 7:55 PM MDT
Astronomical Twilight 5:19 AM MDT 8:24 PM MDT
Moon 5:47 PM MDT (9/17) 4:44 AM MDT (9/17)
Length of Visible Light 13h 07m
Length of Day
12h 18m
Waxing Gibbous, 96% of the Moon is Illuminated
Sep 17
Waxing Gibbous
Sep 19
Full
Sep 26
Last Quarter
Oct 4
New
Oct 11
First Quarter

Hourly Weather History & Observations

Time (MDT) Temp. Heat Index Dew Point Humidity Pressure Visibility Wind Dir Wind Speed Gust Speed Precip Events Conditions
12:28 AM 66.2 °F - 62.6 °F 88% 30.19 in 9.0 mi SE 16.1 mph - 0.01 in Rain , Thunderstorm Light Rain
12:43 AM 66.2 °F - 62.6 °F 88% 30.20 in 10.0 mi SSE 13.8 mph - 0.01 in Rain Light Rain
12:51 AM 66.0 °F - 62.1 °F 87% 30.03 in 10.0 mi SSE 13.8 mph - 0.01 in Rain Light Rain
1:51 AM 66.0 °F - 63.0 °F 90% 30.01 in 10.0 mi SSE 8.1 mph - 0.00 in   Overcast
2:15 AM 66.2 °F - 64.4 °F 94% 30.18 in 10.0 mi South 4.6 mph - 0.00 in Rain Light Rain
2:51 AM 66.0 °F - 64.0 °F 93% 29.99 in 10.0 mi SSW 3.5 mph - 0.00 in Rain Light Rain
3:32 AM 66.2 °F - 64.4 °F 94% 30.16 in 10.0 mi SSW 3.5 mph - 0.01 in   Overcast
3:51 AM 66.0 °F - 64.9 °F 96% 29.98 in 10.0 mi Calm Calm - 0.01 in   Overcast
4:51 AM 66.9 °F - 64.0 °F 90% 29.97 in 10.0 mi SW 3.5 mph - N/A   Overcast
5:01 AM 66.2 °F - 64.4 °F 94% 30.15 in 10.0 mi SW 3.5 mph - N/A   Overcast
5:42 AM 66.2 °F - 64.4 °F 94% 30.15 in 10.0 mi Calm Calm - 0.00 in   Overcast
5:51 AM 66.9 °F - 64.0 °F 90% 29.97 in 10.0 mi Calm Calm - 0.00 in   Overcast
6:15 AM 66.2 °F - 64.4 °F 94% 30.15 in 10.0 mi Calm Calm - N/A   Overcast
6:48 AM 66.2 °F - 64.4 °F 94% 30.16 in 10.0 mi Calm Calm - N/A   Overcast
6:51 AM 66.9 °F - 64.0 °F 90% 29.99 in 10.0 mi Calm Calm - N/A   Overcast
7:21 AM 68.0 °F - 64.4 °F 88% 30.16 in 10.0 mi Calm Calm - 0.00 in Rain Light Rain
7:51 AM 68.0 °F - 64.9 °F 90% 30.00 in 10.0 mi Calm Calm - 0.00 in   Overcast
8:36 AM 69.8 °F - 66.2 °F 88% 30.17 in 10.0 mi South 5.8 mph - N/A   Overcast
8:51 AM 70.0 °F - 66.0 °F 87% 30.00 in 10.0 mi South 5.8 mph - N/A   Overcast
9:22 AM 69.8 °F - 66.2 °F 88% 30.17 in 10.0 mi South 9.2 mph - N/A   Overcast
9:51 AM 72.0 °F - 66.0 °F 81% 30.01 in 10.0 mi SSE 9.2 mph - N/A   Overcast
10:26 AM 71.6 °F - 66.2 °F 83% 30.16 in 10.0 mi South 6.9 mph - N/A   Mostly Cloudy
10:29 AM 71.6 °F - 66.2 °F 83% 30.16 in 10.0 mi SSE 8.1 mph - N/A   Mostly Cloudy
10:40 AM 73.4 °F - 66.2 °F 78% 30.16 in 10.0 mi SSE 11.5 mph - N/A   Mostly Cloudy
10:51 AM 73.9 °F - 64.9 °F 73% 30.00 in 10.0 mi SSE 13.8 mph - N/A   Mostly Cloudy
11:07 AM 75.2 °F - 66.2 °F 73% 30.15 in 10.0 mi SSE 12.7 mph 19.6 mph N/A   Mostly Cloudy
11:51 AM 77.0 °F - 64.9 °F 66% 29.97 in 10.0 mi SSE 10.4 mph - N/A   Mostly Cloudy
12:51 PM 77.0 °F - 64.0 °F 64% 29.95 in 10.0 mi SSE 12.7 mph - N/A   Partly Cloudy
1:51 PM 79.0 °F - 64.0 °F 60% 29.91 in 10.0 mi SSE 16.1 mph 20.7 mph N/A   Partly Cloudy
2:51 PM 80.1 °F 81.2 °F 62.1 °F 54% 29.88 in 10.0 mi SSE 17.3 mph 21.9 mph N/A   Partly Cloudy
3:51 PM 81.0 °F 81.7 °F 61.0 °F 50% 29.85 in 10.0 mi SSE 15.0 mph 24.2 mph N/A   Partly Cloudy
4:51 PM 80.1 °F 81.1 °F 61.0 °F 52% 29.85 in 10.0 mi South 9.2 mph - N/A   Partly Cloudy
5:51 PM 78.1 °F - 63.0 °F 60% 29.85 in 10.0 mi South 9.2 mph - N/A   Clear
6:51 PM 77.0 °F - 64.0 °F 64% 29.84 in 10.0 mi SSE 9.2 mph - N/A   Scattered Clouds
7:51 PM 73.9 °F - 64.0 °F 71% 29.86 in 10.0 mi SSE 9.2 mph - N/A   Partly Cloudy
8:51 PM 73.0 °F - 62.1 °F 68% 29.88 in 10.0 mi SSE 10.4 mph - N/A   Mostly Cloudy
9:51 PM 73.0 °F - 61.0 °F 66% 29.90 in 10.0 mi South 11.5 mph - N/A   Overcast
10:51 PM 71.1 °F - 62.1 °F 73% 29.91 in 10.0 mi South 10.4 mph - N/A   Overcast
11:51 PM 71.1 °F - 63.0 °F 75% 29.90 in 10.0 mi South 12.7 mph - 0.00 in Rain Light Rain